User: anonymous   Login
Location: Unspecified
(0.0000°N, 0.0000°E)
Time: 20:54:38
(UTC+00:00)
Language:

SR - Orbit

View from above orbital plane
View from above orbital plane
View from above satellite
View from above satellite

Ground track
Ground track

The orbit data is extracted from the following two-line orbital elements,

1    46U 60007B   18050.88359215 -.00000011 +00000-0 +21052-4 0  9995
2    46 066.6904 179.1072 0205789 042.0579 319.6118 14.49120000016151
Epoch (UTC): 19 February 2018 21:12:22
Eccentricity: 0.0205789
inclination: 66.6904°
perigee height: 582 km
apogee height: 875 km
right ascension of ascending node: 179.1072°
argument of perigee: 42.0579°
revolutions per day: 14.49120000
mean anomaly at epoch: 319.6118°
orbit number at epoch: 1615

The dashed part of the orbit path shows where the satellite is in the earth's shadow,  

DLR